Regional Weather Roundup
Issued by NWS Little Rock, AR

Home | Current Version | Previous Version | Graphics & Text | Print | Product List | Glossary On
Versions: 1 2 3 4 5 6 7 8 9 10 11 12 13 14 15 16 17 18 19 20 21 22 23 24 25 26 27 28 29 30 31 32 33 34 35 36 37 38 39 40 41 42 43 44 45 46 47 48 49 50
000
ASUS44 KLZK 030505
RWRLZK

WEATHER ROUNDUP FOR ARKANSAS
NATIONAL WEATHER SERVICE LITTLE ROCK AR
1200 AM CDT SUN MAY 03 2015

NOTE: "FAIR" INDICATES FEW OR NO CLOUDS BELOW 12,000 FEET WITH NO
SIGNIFICANT WEATHER AND/OR OBSTRUCTIONS TO VISIBILITY.

ARZ001-003-010-029-030600-
NORTHWEST ARKANSAS

CITY           SKY/WX    TMP DP  RH WIND       PRES   REMARKS
FAYETTEVILLE   CLEAR     53  52  96 S7        30.01F
FORT SMITH     CLEAR     64  52  64 CALM      29.99F
HARRISON       CLEAR     59  48  67 S7        30.02F
BENTONVILLE    CLEAR    N/A N/A N/A S5        30.01S
ROGERS         CLEAR     61  50  67 SE7       30.01F
SILOAM SPGS    CLEAR     61  46  59 SE5       30.01S
HIGHFILL       CLEAR     60  49  66 CALM      30.00
$$

ARZ004-005-016-030600-
NORTH CENTRAL ARKANSAS

CITY           SKY/WX    TMP DP  RH WIND       PRES   REMARKS
BATESVILLE     CLEAR     63  43  48 CALM      30.04S
FLIPPIN        CLEAR     64  46  52 CALM      30.00F
MTN HOME       CLEAR     59  46  62 S5        30.02R
$$

ARZ040-041-030600-
WEST CENTRAL ARKANSAS

CITY           SKY/WX    TMP DP  RH WIND       PRES   REMARKS
MENA           CLEAR     55  54  94 CALM      30.04S
MOUNT IDA      CLEAR     56  53  90 CALM      30.02S
$$

ARZ009-017-025-026-028-030600-
NORTHEAST ARKANSAS

CITY           SKY/WX    TMP DP  RH WIND       PRES   REMARKS
CORNING          N/A     59  45  58 S5        30.04S
JONESBORO      CLEAR     51  47  86 E3        30.04S
NEWPORT        CLEAR     60  48  64 S5        30.05S
WALNUT RIDGE   PTCLDY    59  45  58 S9        30.03S
BLYTHEVILLE    CLEAR     62  45  53 SW5       30.05S
$$

ARZ022-023-033-042-044-030600-
CENTRAL ARKANSAS

CITY           SKY/WX    TMP DP  RH WIND       PRES   REMARKS
LITTLE ROCK    PTCLDY    60  47  61 CALM      30.04S
N LITTLE ROCK  PTCLDY    64  48  56 S5        30.04
JACKSONVILLE   CLEAR     53  49  87 NE1       30.04R
SEARCY         CLEAR     53  50  89 CALM      30.06R
HOT SPRINGS    CLEAR     59  49  69 CALM      30.04S
RUSSELLVILLE   CLEAR     57  53  86 CALM      30.02S
CLINTON        FAIR      52  50  93 CALM      30.06S
$$

ARZ036-030600-
EAST ARKANSAS

CITY           SKY/WX    TMP DP  RH WIND       PRES   REMARKS
WEST MEMPHIS   CLEAR     54  50  86 CALM      30.04F
$$

ARZ050-053-066-070-073-030600-
SOUTHWEST ARKANSAS

CITY           SKY/WX    TMP DP  RH WIND       PRES   REMARKS
ARKADELPHIA    FAIR      58  58 100 CALM      30.04S
CAMDEN         CLEAR     55  52  88 CALM      30.04S
TEXARKANA      MOCLDY    66  55  67 SE5       30.02S
EL DORADO      CLEAR     59  52  77 CALM      30.04S
DE QUEEN       CLOUDY    58  56  93 CALM      30.01R
$$

ARZ056-057-069-030600-
SOUTHEAST ARKANSAS

CITY           SKY/WX    TMP DP  RH WIND       PRES   REMARKS
PINE BLUFF     CLEAR     60  53  77 CALM      30.05S
STUTTGART      CLEAR     63  48  59 SE7       30.05S
MONTICELLO     CLEAR     57  51  80 CALM      30.05S

$$





USA.gov is the U.S. government's official web portal to all federal, state and local government web resources and services.